Location: Lucerne Valley
(34.4439°N, 116.9669°E)
Time: 01:03:35
(UTC-07:00)

OTV 5 (USA 277) - Pass Details

Date: 10 October 2017
Orbit: 404 x 417 km, 43.0° (Epoch: 07 September)

Event Time Altitude Azimuth Distance (km) Brightness Sun altitude
Rises 04:21:19 0° 258° (WSW) 2,345 ? -20.8°
Reaches altitude 10° 04:23:30 10° 266° (W) 1,484 ? -21.2°
Maximum altitude 04:26:42 41° 338° (NNW) 615 ? -21.9°
Enters shadow 04:26:43 41° 339° (NNW) 615 ? -21.9°
